Wind_Speed
18 20 25 26 27 26 22 20 20 18 16 18 16 14 16 18 17 23 31 31 38 35 33 33 36 37 37 36 36 31 28 26
17 23 27 28 27 26 22 21 22 20 19 16 17 16 15 16 14 7 35 30 40 34 33 33 36 37 36 34 33 33 25 26
8 20 25 29 27 28 20 21 23 23 23 18 14 16 14 14 15 17 27 26 31 33 32 34 36 37 37 38 34 28 21 30
11 15 23 24 26 26 23 23 23 24 24 19 14 14 9 12 16 18 21 25 28 31 30 29 33 36 36 38 36 31 23 30
12 13 16 28 26 23 23 22 22 24 24 21 21 14 10 10 16 20 21 25 26 29 31 28 31 32 33 37 38 31 29 26
15 19 23 26 25 24 27 23 21 24 25 23 22 16 15 14 15 18 22 25 29 31 32 35 34 34 35 34 36 35 27 29
9 10 18 21 22 21 26 20 18 21 24 24 23 20 16 13 14 17 21 24 30 32 29 37 33 33 32 32 36 36 32 24
13 16 17 23 25 23 24 23 19 20 23 22 21 19 18 15 16 18 20 19 26 32 35 31 28 29 30 33 33 35 34 30
15 18 18 25 25 25 24 22 17 18 20 19 18 18 18 17 17 19 21 22 23 29 32 32 29 27 32 34 31 33 32 33
13 13 13 24 25 24 22 20 15 14 19 18 16 16 16 18 17 17 19 21 22 26 32 32 30 31 30 31 35 37 39 34
10 9 11 17 19 19 18 18 17 16 16 18 17 16 16 17 18 17 17 19 16 21 27 29 29 29 30 31 32 35 41 41
10 10 14 16 17 16 15 17 16 15 16 15 17 17 16 15 17 18 19 17 20 19 23 28 28 30 32 33 34 34 34 32
12 12 15 17 17 17 15 14 14 13 15 15 15 15 17 17 18 18 17 19 19 20 21 24 28 31 32 35 35 32 33 35
15 16 15 15 16 12 10 7 6 11 13 14 15 17 18 21 19 19 20 20 23 24 25 25 27 30 34 37 39 40 40 42
15 15 14 19 23 21 21 20 13 3 11 16 15 18 19 21 21 21 21 22 23 27 31 33 34 35 36 35 34 37 37 37
15 14 13 17 22 21 20 22 19 18 18 15 13 5 12 17 20 23 25 26 28 28 30 32 34 36 38 38 36 36 36 36
14 14 14 15 18 18 20 20 17 18 16 15 12 11 9 8 5 3 13 23 28 31 33 33 32 36 35 37 40 37 37 37
12 12 13 14 16 17 17 16 14 18 18 18 17 14 11 10 8 6 5 5 6 5 9 20 26 31 36 39 42 44 39 38
11 10 15 14 17 16 15 16 15 17 18 18 18 17 16 14 12 11 10 10 10 11 13 15 16 13 17 17 26 39 44 44
Wind_Direction
219 199 198 199 199 198 194 185 188 196 203 201 194 201 207 203 216 216 209 189 186 183 188 192 183 183 187 184 180 178 179 181
172 178 191 195 198 193 191 187 195 197 191 182 184 180 190 199 212 180 190 182 186 188 191 191 185 183 185 183 182 180 173 172
164 167 175 188 189 193 185 191 197 198 202 197 186 182 194 195 188 161 167 182 175 186 193 191 189 186 189 188 184 181 173 176
174 176 178 179 188 187 186 190 193 199 200 192 184 185 172 180 190 180 174 185 188 195 196 193 193 194 192 189 191 183 169 179
168 173 180 187 190 185 187 184 187 193 198 187 190 176 165 189 194 199 190 192 192 198 197 201 201 197 200 199 195 193 185 180
176 186 185 187 182 183 190 183 185 195 197 193 184 175 188 193 200 219 207 195 197 202 203 203 202 201 206 202 198 201 195 188
162 167 169 179 181 184 186 181 185 191 194 199 198 193 187 179 188 198 205 205 193 191 193 196 196 202 208 209 206 206 211 210
160 167 176 180 180 179 179 182 185 187 193 204 211 210 214 214 219 215 202 191 193 201 203 201 202 207 213 217 214 214 213 222
184 182 178 178 177 179 180 180 180 190 201 208 219 216 211 213 220 221 211 208 206 205 203 208 211 216 221 223 227 223 225 229
192 177 177 173 174 176 176 170 172 183 204 212 211 212 207 208 213 217 213 208 212 215 217 213 216 215 219 219 222 226 226 223
106 136 151 160 162 162 166 165 174 184 195 210 214 218 216 210 206 211 219 217 202 208 210 208 212 215 210 208 210 215 217 228
96 103 134 130 137 137 149 164 172 189 199 205 217 219 222 225 222 218 220 222 216 206 208 213 217 219 222 221 218 219 219 225
73 106 116 118 125 134 152 163 177 192 207 210 210 226 230 230 230 229 224 220 219 214 210 216 217 222 225 222 223 225 224 226
55 59 63 70 82 100 112 124 178 210 209 214 217 225 231 235 240 241 239 231 226 223 221 221 225 230 230 232 230 230 230 234
59 54 54 57 60 56 51 47 53 44 215 224 221 228 231 239 242 243 241 242 240 236 235 237 239 242 241 236 233 232 232 233
52 53 49 49 50 46 47 45 35 60 76 77 63 25 243 246 243 249 250 247 247 247 247 246 249 252 250 241 236 235 236 237
51 52 52 48 50 46 45 44 25 55 56 54 52 51 46 69 80 56 244 246 248 249 247 246 245 249 247 246 244 240 242 244
57 53 49 45 52 53 52 42 29 44 49 44 44 38 31 19 17 14 353 345 332 331 277 257 251 249 253 253 252 246 243 243
59 57 45 38 45 46 55 53 47 41 39 36 35 31 27 25 20 12 4 355 347 335 330 319 305 312 316 304 268 256 247 246
Height
688 694 699 705 710 714 720 723 726 730 732 735 738 742 745 748 751 754 754 758 765 770 777 785 791 799 805 810 815 820 822 827
684 690 697 703 709 713 717 720 724 728 731 733 736 740 743 747 749 748 748 755 759 769 776 783 787 795 802 808 815 819 823 826
683 687 692 698 705 708 713 717 721 725 728 731 734 738 742 746 749 750 752 756 760 768 775 782 787 794 801 807 811 817 820 824
680 683 685 693 700 704 709 714 718 722 726 730 733 737 741 745 749 751 754 757 761 767 774 780 785 791 796 802 808 813 814 820
674 680 684 686 694 700 706 711 716 720 724 728 731 735 739 743 747 751 755 758 763 767 772 778 785 789 794 799 806 811 812 816
667 670 674 684 691 696 702 710 714 717 722 726 729 733 737 742 746 752 754 756 760 765 770 776 782 787 793 797 801 807 811 813
664 672 678 683 689 694 700 707 711 715 719 723 727 731 735 739 744 748 752 754 756 762 767 770 777 783 788 793 798 803 807 811
660 668 672 678 683 690 697 702 707 712 717 723 727 730 734 738 742 745 749 752 754 759 763 769 773 779 785 791 795 798 802 806
653 657 662 669 679 686 693 699 706 711 717 722 726 730 733 737 740 743 746 750 753 757 760 765 770 776 781 786 791 794 799 803
649 657 662 666 675 684 692 699 706 711 715 720 724 728 732 736 738 741 744 747 751 754 757 761 767 771 776 780 785 790 796 799
651 660 666 673 679 687 695 700 705 710 714 718 722 727 730 733 737 739 743 746 749 752 756 760 765 770 773 777 780 784 788 792
660 665 670 677 683 690 696 701 705 710 714 717 721 725 728 731 734 737 741 744 747 749 752 757 763 767 771 773 776 779 782 784
668 671 675 680 686 692 698 701 706 711 714 717 720 723 725 728 730 733 737 742 746 749 751 754 758 762 766 770 773 775 777 780
683 682 685 685 690 696 701 704 707 711 714 717 719 720 722 724 727 730 733 736 740 745 749 752 754 757 760 762 764 767 770 772
694 694 696 696 698 703 705 708 710 710 712 715 718 719 720 722 725 728 730 732 735 739 742 745 748 751 753 756 758 760 762 763
704 705 706 706 708 712 713 713 716 714 715 716 717 717 719 721 723 725 727 730 732 734 736 738 740 742 744 747 750 752 753 755
718 716 717 718 720 723 718 719 726 721 721 720 720 720 720 720 721 722 723 725 727 728 729 731 733 733 736 738 741 743 744 746
728 727 727 732 727 727 729 730 734 729 727 725 723 723 724 724 724 723 723 723 724 725 725 727 727 728 729 729 731 732 732 733
731 732 734 737 732 734 734 735 737 735 733 731 728 727 727 727 727 726 723 724 724 724 724 723 723 723 721 721 720 721 720 720